| time (UTC) | temp F | wind direction | speed knots | gust knots | rain 1hr in | rain 24hr in | rain mn in | humidity % | barometer mb |
| 20260502214556 | 55 | 31 | 0.0 | 2.6 | 0.00 | 0.00 | 0.00 | 71 | 1006.9 |
| 20260502213106 | 54 | 31 | 0.0 | 0.9 | 0.00 | 0.00 | 0.00 | 72 | 1006.8 |
| 20260502211555 | 54 | 26 | 0.0 | 0.0 | 0.00 | 0.00 | 0.00 | 73 | 1006.8 |
| 20260502210054 | 55 | 25 | 0.0 | 0.0 | 0.00 | 0.00 | 0.00 | 70 | 1006.8 |
| 20260502204602 | 56 | 25 | 0.0 | 0.0 | 0.00 | 0.00 | 0.00 | 68 | 1006.8 |
| 20260502203053 | 57 | 25 | 0.0 | 0.9 | 0.00 | 0.00 | 0.00 | 66 | 1006.9 |
| 20260502201552 | 59 | 25 | 0.0 | 0.9 | 0.00 | 0.00 | 0.00 | 63 | 1006.9 |
| 20260502200051 | 61 | 25 | 0.0 | 0.9 | 0.00 | 0.00 | 0.00 | 58 | 1007.0 |
| 20260502194551 | 62 | 44 | 0.0 | 4.3 | 0.00 | 0.00 | 0.00 | 55 | 1007.0 |
| 20260502193053 | 62 | 49 | 0.0 | 3.5 | 0.00 | 0.00 | 0.00 | 55 | 1007.1 |
| 20260502191551 | 63 | 70 | 0.0 | 1.7 | 0.00 | 0.00 | 0.00 | 54 | 1007.1 |
| 20260502190050 | 63 | 56 | 0.0 | 1.7 | 0.00 | 0.00 | 0.00 | 53 | 1007.0 |
| 20260502184556 | 64 | 43 | 0.0 | 3.5 | 0.00 | 0.00 | 0.00 | 51 | 1007.0 |
| 20260502183048 | 65 | 85 | 1.7 | 5.2 | 0.00 | 0.00 | 0.00 | 49 | 1006.9 |
| 20260502181548 | 66 | 54 | 1.7 | 6.1 | 0.00 | 0.00 | 0.00 | 48 | 1006.9 |
| 20260502163044 | 71 | 149 | 0.9 | 10.4 | 0.00 | 0.00 | 0.00 | 38 | 1006.9 |
| 20260502161543 | 72 | 146 | 0.0 | 8.7 | 0.00 | 0.00 | 0.00 | 35 | 1006.9 |
| 20260502151539 | 73 | 44 | 6.1 | 13.0 | 0.00 | 0.00 | 0.00 | 32 | 1007.5 |
| 20260502123020 | 73 | 103 | 3.5 | 19.1 | 0.00 | 0.00 | 0.00 | 35 | 1009.1 |
| 20260502121534 | 72 | 146 | 7.0 | 19.1 | 0.00 | 0.00 | 0.00 | 35 | 1009.4 |
| 20260502114511 | 72 | 157 | 5.2 | 13.9 | 0.00 | 0.00 | 0.00 | 37 | 1009.7 |
| 20260502113008 | 71 | 101 | 7.0 | 14.8 | 0.00 | 0.00 | 0.00 | 38 | 1010.0 |
| 20260502111505 | 70 | 335 | 5.2 | 12.2 | 0.00 | 0.00 | 0.00 | 42 | 1010.3 |
| 20260502110002 | 69 | 328 | 5.2 | 11.3 | 0.00 | 0.00 | 0.00 | 44 | 1010.6 |
| 20260502104558 | 68 | 5 | 5.2 | 10.4 | 0.00 | 0.00 | 0.00 | 46 | 1010.7 |
| 20260502103108 | 67 | 330 | 5.2 | 9.6 | 0.00 | 0.00 | 0.00 | 48 | 1011.1 |
| 20260502101607 | 65 | 41 | 6.1 | 12.2 | 0.00 | 0.00 | 0.00 | 50 | 1011.3 |
| 20260502071518 | 58 | 79 | 2.6 | 5.2 | 0.00 | 0.00 | 0.00 | 60 | 1013.5 |
| 20260502070020 | 57 | 326 | 3.5 | 6.1 | 0.00 | 0.00 | 0.00 | 61 | 1013.5 |
| 20260502064515 | 57 | 323 | 3.5 | 5.2 | 0.00 | 0.00 | 0.00 | 61 | 1013.7 |
| 20260502063021 | 57 | 339 | 2.6 | 7.0 | 0.00 | 0.00 | 0.00 | 59 | 1013.8 |
| 20260502061507 | 56 | 333 | 1.7 | 6.1 | 0.00 | 0.00 | 0.00 | 60 | 1014.0 |
| 20260502060005 | 55 | 48 | 1.7 | 5.2 | 0.00 | 0.00 | 0.00 | 60 | 1014.0 |
| 20260502054503 | 54 | 340 | 1.7 | 5.2 | 0.00 | 0.00 | 0.00 | 63 | 1014.2 |
| 20260502053003 | 53 | 337 | 1.7 | 4.3 | 0.00 | 0.00 | 0.00 | 66 | 1014.3 |
| 20260502051501 | 52 | 331 | 2.6 | 5.2 | 0.00 | 0.00 | 0.00 | 67 | 1014.3 |
| 20260502050101 | 51 | 44 | 1.7 | 6.1 | 0.00 | 0.00 | 0.00 | 68 | 1014.4 |
| 20260502044600 | 51 | 333 | 1.7 | 4.3 | 0.00 | 0.00 | 0.00 | 69 | 1014.4 |
| 20260502044501 | 50 | 355 | 0.9 | 5.2 | 0.00 | 0.00 | 0.00 | 69 | 1014.4 |
| 20260502043107 | 50 | 35 | 0.0 | 4.3 | 0.00 | 0.00 | 0.00 | 71 | 1014.6 |
| 20260502041558 | 49 | 326 | 1.7 | 5.2 | 0.00 | 0.00 | 0.00 | 72 | 1014.6 |
| 20260502040056 | 48 | 51 | 1.7 | 5.2 | 0.00 | 0.00 | 0.00 | 72 | 1014.7 |
| 20260502034555 | 48 | 49 | 0.0 | 3.5 | 0.00 | 0.00 | 0.00 | 72 | 1014.7 |
| 20260502033055 | 48 | 356 | 0.9 | 4.3 | 0.00 | 0.00 | 0.00 | 72 | 1014.9 |
| 20260502031550 | 48 | 20 | 1.7 | 4.3 | 0.00 | 0.00 | 0.00 | 72 | 1015.0 |
| 20260502030052 | 48 | 59 | 1.7 | 4.3 | 0.00 | 0.00 | 0.00 | 71 | 1015.1 |
| 20260502024548 | 49 | 37 | 1.7 | 4.3 | 0.00 | 0.00 | 0.00 | 70 | 1015.3 |
| 20260502023048 | 49 | 40 | 0.9 | 3.5 | 0.00 | 0.00 | 0.00 | 67 | 1015.4 |
| 20260502021541 | 49 | 56 | 0.0 | 5.2 | 0.00 | 0.00 | 0.00 | 66 | 1015.6 |
| 20260502020039 | 49 | 58 | 1.7 | 4.3 | 0.00 | 0.00 | 0.00 | 68 | 1015.7 |
| 20260502014535 | 49 | 51 | 0.9 | 3.5 | 0.00 | 0.00 | 0.00 | 69 | 1015.9 |
| 20260502013042 | 50 | 351 | 1.7 | 4.3 | 0.00 | 0.00 | 0.00 | 68 | 1016.0 |
| 20260502011531 | 49 | 339 | 0.9 | 5.2 | 0.00 | 0.00 | 0.00 | 69 | 1016.2 |
| 20260502010029 | 49 | 39 | 1.7 | 6.1 | 0.00 | 0.00 | 0.00 | 69 | 1016.4 |
| 20260502004544 | 50 | 21 | 0.9 | 3.5 | 0.00 | 0.00 | 0.00 | 68 | 1016.6 |
| 20260502003024 | 50 | 19 | 0.9 | 3.5 | 0.00 | 0.00 | 0.00 | 66 | 1016.7 |
| 20260502001520 | 52 | 356 | 0.0 | 5.2 | 0.00 | 0.00 | 0.00 | 62 | 1016.8 |
| 20260502000018 | 52 | 32 | 1.7 | 7.8 | 0.00 | 0.00 | 0.00 | 61 | 1016.9 |
| 20260501234523 | 52 | 39 | 1.7 | 7.8 | 0.00 | 0.00 | 0.00 | 61 | 1016.9 |
| 20260501233014 | 52 | 9 | 1.7 | 6.1 | 0.00 | 0.00 | 0.00 | 60 | 1017.0 |
| 20260501231513 | 53 | 29 | 0.9 | 6.1 | 0.00 | 0.00 | 0.00 | 59 | 1017.0 |
| 20260501230008 | 53 | 47 | 1.7 | 7.8 | 0.00 | 0.00 | 0.00 | 57 | 1017.1 |
| 20260501224505 | 54 | 12 | 3.5 | 8.7 | 0.00 | 0.00 | 0.00 | 57 | 1017.2 |
| 20260501223006 | 54 | 57 | 0.9 | 7.0 | 0.00 | 0.00 | 0.00 | 56 | 1017.3 |
| 20260501221502 | 54 | 89 | 2.6 | 7.8 | 0.00 | 0.00 | 0.00 | 56 | 1017.2 |
| 20260501220106 | 55 | 19 | 3.5 | 9.6 | 0.00 | 0.00 | 0.00 | 56 | 1017.3 |